Home > Weather > Aurora > Past weeks

Flag for USA Past Weather in Aurora, Colorado, USA — Yesterday and Last 2 Weeks

Now
58 °F

Passing clouds.


Feels Like: 57 °F
Forecast: 59 / 82 °F
Wind: 7 mph from East

Location: Buckley Air Force Base

Current Time: Jul 29, 2016 at 6:16:19 AM

Latest Report: Jul 29, 2016 at 4:58 AM


Visibility: 10 mi

Pressure: 29.99 "Hg (24.67 "Hg at 1647m altitude)

Humidity: 99%

Dew Point: 58 °F

Location of AuroraLocation

Past Weather in Aurora — Graph

°F

Aurora Temperature Yesterday

Maximum temperature yesterday: 83 °F (at 5:58 PM)
Minimum temperature yesterday: 60 °F (at 5:58 AM)
Average temperature yesterday: 70 °F

High & Low Weather Summary for the Past Weeks

 TemperatureHumidityPressure
High95 °F (Jul 23, 3:58 PM)99% (Jul 29, 4:58 AM)30.21 "Hg (Jul 29, 4:58 AM)
Low56 °F (Jul 14, 5:58 AM)9% (Jul 16, 2:58 PM)29.67 "Hg (Jul 16, 2:58 PM)
Average75 °F47%29.95 "Hg
* Reported Jul 14 4:58 AM — Jul 29 4:58 AM, Aurora, Weather by CustomWeather, © 2016

Note: Actual official high and low records may vary slightly from our data, if they occured in-between our weather recording intervals... More about our weather records

Advertising

Aurora Weather History for the Previous 24 Hours

Scroll right to see more
 ConditionsComfort  
Time TempWeatherWind HumidityBarometerVisibility
4:58 AM
Fri, Jul 29
58 °FPassing clouds.7 mph99%29.99 "Hg10 mi
3:58 AM60 °FPassing clouds.7 mph92%29.98 "Hg10 mi
2:58 AM61 °FPassing clouds.12 mph89%30.01 "Hg10 mi
1:58 AM64 °FPartly cloudy.8 mph88%30.02 "Hg10 mi
12:58 AM65 °FPartly cloudy.5 mph83%30.04 "Hg10 mi
11:58 PM
Thu, Jul 28
68 °FMostly cloudy.5 mph77%30.05 "Hg10 mi
10:58 PM68 °FMostly cloudy.7 mph75%30.05 "Hg10 mi
9:58 PM68 °FPartly cloudy.7 mph73%30.01 "Hg10 mi
8:58 PM70 °FPartly sunny.12 mph67%30.04 "Hg10 mi
5:58 PM83 °FScattered clouds.9 mph41%29.96 "Hg10 mi
4:58 PM82 °FBroken clouds.9 mph42%29.96 "Hg10 mi
2:58 PM82 °FScattered clouds.13 mph38%29.96 "Hg10 mi
12:58 PM80 °FPassing clouds.17 mph47%29.98 "Hg10 mi
9:58 AM77 °FScattered clouds.17 mph55%29.96 "Hg10 mi
7:58 AM67 °FPassing clouds.2 mph70%29.96 "Hg10 mi
6:58 AM64 °FPassing clouds.7 mph78%29.95 "Hg10 mi
Weather by CustomWeather, © 2016

See weather overviewHow to use our weather pages